Precipitable_Water
0.63 0.65 0.67 0.69 0.71 0.73 0.75 0.75 0.77 0.81 0.85 0.93 0.95 0.97 1.05 1.09 1.15 1.19 1.21 1.22 1.24 1.26 1.26 1.28 1.30 1.32 1.32 1.34 1.36 1.38 1.38 1.38 1.38 1.38 1.38 1.38 1.38 1.40 1.42 1.42 1.44 1.48 1.50 1.50 1.50 1.52 1.52 1.50 1.50 1.50 1.50 1.50 1.52 1.52 1.52 1.54 1.52 1.52 1.52 1.52 1.52 1.52 1.52 1.54 1.54 1.54 1.54 1.54 1.56 1.58 1.58 1.58 1.60 1.60 1.60 1.60 1.58 1.58 1.58 1.58 1.60 1.60 1.60 1.60 1.58 1.56
0.54 0.58 0.58 0.61 0.65 0.67 0.69 0.71 0.73 0.75 0.75 0.83 0.85 0.87 0.95 1.01 1.05 1.09 1.09 1.15 1.19 1.21 1.22 1.24 1.26 1.28 1.26 1.30 1.32 1.34 1.36 1.34 1.36 1.38 1.38 1.36 1.38 1.38 1.38 1.38 1.40 1.42 1.44 1.44 1.46 1.48 1.50 1.50 1.50 1.50 1.48 1.48 1.48 1.50 1.50 1.50 1.52 1.52 1.50 1.52 1.52 1.52 1.52 1.52 1.52 1.52 1.52 1.54 1.54 1.56 1.56 1.56 1.58 1.58 1.58 1.60 1.60 1.60 1.60 1.60 1.60 1.62 1.62 1.62 1.60 1.56
0.46 0.48 0.46 0.54 0.58 0.60 0.65 0.65 0.67 0.71 0.73 0.75 0.75 0.79 0.85 0.89 0.95 1.01 0.99 1.07 1.13 1.17 1.17 1.21 1.22 1.24 1.24 1.26 1.28 1.30 1.32 1.30 1.32 1.32 1.34 1.32 1.34 1.36 1.38 1.38 1.38 1.40 1.40 1.40 1.42 1.44 1.46 1.46 1.48 1.48 1.48 1.48 1.48 1.48 1.48 1.48 1.50 1.50 1.48 1.48 1.48 1.48 1.50 1.50 1.50 1.50 1.52 1.52 1.54 1.54 1.56 1.56 1.58 1.58 1.58 1.58 1.58 1.60 1.60 1.60 1.60 1.62 1.62 1.62 1.60 1.58
0.40 0.42 0.42 0.44 0.48 0.52 0.58 0.58 0.61 0.67 0.71 0.73 0.73 0.75 0.75 0.77 0.83 0.87 0.87 0.97 1.05 1.09 1.11 1.17 1.19 1.21 1.19 1.22 1.24 1.26 1.28 1.28 1.28 1.30 1.32 1.30 1.30 1.32 1.34 1.34 1.36 1.36 1.38 1.38 1.40 1.42 1.44 1.44 1.44 1.46 1.46 1.46 1.46 1.46 1.46 1.46 1.46 1.46 1.46 1.46 1.46 1.46 1.46 1.48 1.48 1.48 1.48 1.50 1.52 1.52 1.54 1.56 1.56 1.58 1.58 1.58 1.58 1.58 1.58 1.58 1.60 1.60 1.60 1.60 1.60 1.60
0.36 0.38 0.38 0.40 0.42 0.46 0.48 0.48 0.54 0.60 0.63 0.69 0.69 0.69 0.71 0.73 0.73 0.75 0.75 0.85 0.93 0.97 0.99 1.09 1.15 1.17 1.17 1.19 1.21 1.22 1.24 1.24 1.26 1.26 1.28 1.28 1.28 1.30 1.32 1.32 1.32 1.34 1.36 1.36 1.36 1.38 1.40 1.38 1.40 1.42 1.42 1.44 1.44 1.44 1.44 1.44 1.44 1.44 1.44 1.44 1.44 1.44 1.44 1.44 1.44 1.44 1.46 1.48 1.50 1.52 1.54 1.54 1.56 1.56 1.56 1.56 1.56 1.54 1.54 1.56 1.56 1.58 1.60 1.60 1.60 1.58
0.30 0.32 0.34 0.36 0.40 0.42 0.44 0.44 0.46 0.50 0.54 0.60 0.61 0.61 0.67 0.69 0.69 0.69 0.71 0.73 0.79 0.83 0.83 0.95 1.03 1.09 1.09 1.15 1.17 1.21 1.22 1.21 1.22 1.24 1.24 1.26 1.26 1.28 1.28 1.28 1.30 1.32 1.34 1.34 1.34 1.36 1.36 1.36 1.36 1.38 1.38 1.40 1.42 1.42 1.42 1.42 1.42 1.42 1.42 1.42 1.42 1.42 1.42 1.42 1.44 1.44 1.44 1.46 1.46 1.48 1.50 1.52 1.52 1.54 1.56 1.54 1.54 1.52 1.52 1.52 1.54 1.56 1.58 1.58 1.58 1.58
0.26 0.28 0.30 0.32 0.34 0.38 0.40 0.40 0.42 0.44 0.46 0.50 0.50 0.52 0.58 0.61 0.61 0.63 0.67 0.69 0.73 0.75 0.77 0.83 0.91 0.97 0.97 1.05 1.11 1.15 1.17 1.19 1.19 1.21 1.22 1.22 1.22 1.24 1.26 1.26 1.26 1.28 1.30 1.30 1.32 1.34 1.34 1.34 1.34 1.36 1.36 1.36 1.38 1.38 1.38 1.40 1.40 1.42 1.42 1.42 1.42 1.42 1.42 1.44 1.44 1.44 1.44 1.44 1.44 1.46 1.46 1.48 1.48 1.52 1.54 1.54 1.52 1.52 1.50 1.50 1.52 1.54 1.56 1.58 1.58 1.58
0.24 0.26 0.26 0.28 0.30 0.32 0.36 0.36 0.38 0.42 0.42 0.44 0.44 0.44 0.48 0.52 0.54 0.56 0.61 0.65 0.67 0.71 0.71 0.75 0.81 0.87 0.87 0.95 1.01 1.07 1.11 1.13 1.13 1.17 1.19 1.19 1.21 1.22 1.24 1.24 1.24 1.26 1.28 1.28 1.28 1.30 1.32 1.32 1.32 1.34 1.34 1.34 1.36 1.36 1.34 1.36 1.38 1.40 1.40 1.42 1.42 1.42 1.42 1.44 1.44 1.44 1.44 1.44 1.44 1.46 1.46 1.46 1.46 1.48 1.52 1.52 1.52 1.52 1.50 1.50 1.50 1.52 1.56 1.58 1.58 1.58
0.22 0.22 0.22 0.24 0.26 0.28 0.30 0.28 0.32 0.36 0.38 0.40 0.40 0.40 0.42 0.46 0.46 0.48 0.52 0.58 0.61 0.65 0.65 0.67 0.71 0.75 0.77 0.85 0.93 0.99 1.05 1.05 1.07 1.11 1.13 1.13 1.15 1.19 1.21 1.21 1.22 1.24 1.26 1.26 1.26 1.28 1.28 1.28 1.30 1.32 1.32 1.32 1.34 1.34 1.32 1.34 1.34 1.36 1.36 1.40 1.42 1.42 1.42 1.44 1.44 1.44 1.44 1.46 1.46 1.46 1.46 1.46 1.46 1.46 1.48 1.48 1.50 1.52 1.50 1.50 1.50 1.52 1.54 1.58 1.58 1.58
0.20 0.20 0.20 0.22 0.24 0.24 0.26 0.26 0.28 0.32 0.34 0.36 0.38 0.38 0.40 0.42 0.42 0.42 0.44 0.50 0.56 0.60 0.58 0.60 0.63 0.65 0.65 0.71 0.77 0.87 0.97 0.97 1.01 1.07 1.09 1.09 1.11 1.13 1.15 1.17 1.19 1.21 1.22 1.22 1.22 1.24 1.26 1.26 1.28 1.30 1.30 1.30 1.30 1.30 1.30 1.30 1.30 1.32 1.32 1.34 1.36 1.38 1.38 1.40 1.40 1.42 1.44 1.44 1.44 1.46 1.46 1.46 1.44 1.44 1.46 1.46 1.50 1.52 1.52 1.52 1.50 1.50 1.52 1.56 1.56 1.56
0.16 0.18 0.16 0.18 0.20 0.22 0.24 0.24 0.26 0.30 0.32 0.34 0.34 0.36 0.38 0.40 0.40 0.38 0.38 0.42 0.46 0.50 0.50 0.54 0.58 0.58 0.58 0.61 0.67 0.73 0.83 0.83 0.87 0.95 1.05 1.05 1.07 1.09 1.13 1.13 1.13 1.17 1.19 1.19 1.21 1.22 1.24 1.24 1.24 1.26 1.28 1.28 1.28 1.28 1.28 1.28 1.28 1.28 1.28 1.30 1.32 1.34 1.34 1.36 1.38 1.38 1.40 1.42 1.42 1.44 1.44 1.44 1.44 1.44 1.44 1.46 1.48 1.52 1.52 1.52 1.52 1.52 1.54 1.54 1.54 1.54
0.14 0.14 0.14 0.16 0.18 0.18 0.20 0.20 0.24 0.28 0.30 0.32 0.30 0.30 0.32 0.36 0.38 0.36 0.36 0.36 0.38 0.40 0.40 0.48 0.52 0.56 0.56 0.60 0.61 0.65 0.71 0.71 0.75 0.83 0.93 0.93 0.97 1.03 1.05 1.07 1.09 1.13 1.15 1.15 1.17 1.19 1.21 1.21 1.22 1.22 1.24 1.24 1.24 1.26 1.26 1.26 1.26 1.26 1.26 1.28 1.30 1.30 1.30 1.32 1.34 1.36 1.36 1.38 1.40 1.40 1.42 1.44 1.44 1.44 1.44 1.44 1.46 1.48 1.50 1.52 1.52 1.52 1.52 1.52 1.52 1.52
0.12 0.12 0.12 0.14 0.16 0.16 0.18 0.18 0.20 0.22 0.24 0.24 0.24 0.26 0.28 0.32 0.34 0.34 0.34 0.34 0.34 0.36 0.36 0.40 0.44 0.46 0.48 0.54 0.58 0.61 0.63 0.65 0.69 0.75 0.81 0.83 0.89 0.95 0.99 0.99 1.01 1.05 1.09 1.07 1.09 1.13 1.19 1.19 1.21 1.21 1.22 1.22 1.22 1.24 1.24 1.24 1.26 1.26 1.26 1.26 1.28 1.28 1.28 1.28 1.30 1.32 1.32 1.34 1.34 1.36 1.40 1.42 1.42 1.42 1.44 1.44 1.46 1.48 1.50 1.50 1.52 1.52 1.52 1.52 1.52 1.52
0.10 0.10 0.12 0.12 0.14 0.14 0.14 0.16 0.16 0.18 0.20 0.20 0.22 0.24 0.26 0.28 0.30 0.32 0.32 0.34 0.34 0.36 0.38 0.38 0.38 0.40 0.40 0.46 0.50 0.54 0.58 0.58 0.63 0.69 0.75 0.77 0.81 0.87 0.93 0.93 0.95 0.99 1.03 1.01 1.03 1.07 1.13 1.13 1.15 1.17 1.19 1.21 1.21 1.22 1.24 1.24 1.24 1.24 1.26 1.26 1.26 1.26 1.28 1.28 1.28 1.28 1.30 1.30 1.32 1.32 1.36 1.38 1.40 1.40 1.42 1.42 1.42 1.44 1.46 1.46 1.48 1.50 1.50 1.50 1.50 1.50
0.10 0.10 0.10 0.10 0.10 0.12 0.12 0.14 0.16 0.16 0.18 0.20 0.22 0.22 0.24 0.26 0.28 0.28 0.30 0.30 0.32 0.36 0.36 0.36 0.36 0.38 0.36 0.40 0.44 0.50 0.54 0.54 0.56 0.60 0.63 0.63 0.67 0.75 0.81 0.85 0.89 0.95 0.99 0.97 0.99 1.03 1.09 1.09 1.11 1.13 1.17 1.17 1.19 1.21 1.22 1.22 1.22 1.24 1.24 1.24 1.26 1.26 1.26 1.28 1.28 1.28 1.28 1.30 1.30 1.32 1.32 1.36 1.36 1.38 1.38 1.40 1.40 1.42 1.44 1.44 1.46 1.48 1.48 1.48 1.50 1.50
0.10 0.10 0.10 0.10 0.10 0.10 0.10 0.12 0.14 0.14 0.18 0.18 0.20 0.22 0.22 0.24 0.24 0.26 0.26 0.28 0.30 0.32 0.34 0.34 0.34 0.34 0.34 0.38 0.42 0.46 0.50 0.48 0.50 0.54 0.56 0.56 0.60 0.67 0.73 0.73 0.75 0.81 0.87 0.87 0.91 0.97 1.05 1.05 1.07 1.09 1.13 1.13 1.17 1.19 1.21 1.21 1.22 1.22 1.24 1.24 1.26 1.26 1.26 1.26 1.28 1.28 1.28 1.28 1.28 1.30 1.30 1.32 1.34 1.34 1.36 1.36 1.38 1.40 1.42 1.44 1.46 1.46 1.48 1.48 1.48 1.48
0.12 0.12 0.10 0.10 0.10 0.10 0.10 0.12 0.12 0.14 0.14 0.14 0.16 0.18 0.20 0.22 0.24 0.24 0.26 0.28 0.30 0.32 0.32 0.32 0.32 0.30 0.28 0.30 0.34 0.38 0.42 0.42 0.44 0.48 0.50 0.50 0.54 0.61 0.67 0.67 0.67 0.73 0.79 0.81 0.85 0.91 0.97 0.97 1.01 1.03 1.05 1.07 1.09 1.13 1.17 1.19 1.21 1.22 1.24 1.24 1.24 1.24 1.26 1.26 1.28 1.28 1.28 1.28 1.28 1.30 1.30 1.32 1.32 1.32 1.34 1.36 1.36 1.36 1.38 1.40 1.42 1.44 1.44 1.46 1.46 1.46
0.14 0.12 0.12 0.10 0.10 0.10 0.12 0.12 0.12 0.12 0.14 0.14 0.14 0.16 0.18 0.18 0.20 0.22 0.26 0.28 0.28 0.30 0.30 0.30 0.30 0.28 0.28 0.28 0.30 0.34 0.40 0.38 0.38 0.38 0.42 0.40 0.44 0.50 0.63 0.61 0.63 0.67 0.73 0.75 0.79 0.87 0.93 0.93 0.97 0.99 1.03 1.03 1.05 1.09 1.13 1.13 1.15 1.19 1.21 1.21 1.21 1.22 1.22 1.24 1.24 1.26 1.26 1.28 1.28 1.28 1.30 1.30 1.30 1.32 1.32 1.34 1.34 1.34 1.36 1.38 1.38 1.40 1.42 1.44 1.44 1.46
0.14 0.14 0.14 0.12 0.12 0.12 0.12 0.12 0.12 0.12 0.12 0.12 0.14 0.14 0.16 0.18 0.20 0.20 0.22 0.24 0.26 0.26 0.26 0.28 0.28 0.28 0.28 0.30 0.32 0.36 0.40 0.38 0.38 0.36 0.36 0.36 0.40 0.44 0.52 0.52 0.54 0.58 0.60 0.61 0.65 0.75 0.87 0.91 0.93 0.97 1.01 1.01 1.03 1.05 1.09 1.09 1.13 1.15 1.19 1.19 1.19 1.21 1.21 1.22 1.22 1.24 1.24 1.24 1.26 1.26 1.26 1.28 1.28 1.28 1.30 1.30 1.32 1.32 1.32 1.32 1.34 1.36 1.38 1.38 1.40 1.42
0.16 0.16 0.14 0.14 0.14 0.12 0.12 0.12 0.12 0.12 0.12 0.14 0.14 0.14 0.16 0.16 0.18 0.18 0.20 0.20 0.22 0.24 0.24 0.24 0.26 0.26 0.30 0.32 0.36 0.40 0.42 0.40 0.38 0.34 0.34 0.34 0.36 0.40 0.46 0.46 0.48 0.50 0.54 0.56 0.60 0.67 0.73 0.77 0.81 0.87 0.93 0.95 0.97 0.99 1.03 1.03 1.07 1.11 1.15 1.15 1.17 1.17 1.17 1.19 1.21 1.22 1.22 1.22 1.24 1.24 1.24 1.26 1.26 1.26 1.28 1.28 1.30 1.30 1.32 1.32 1.32 1.34 1.36 1.36 1.38 1.38
0.16 0.16 0.16 0.16 0.14 0.14 0.14 0.14 0.14 0.14 0.14 0.14 0.14 0.14 0.16 0.16 0.16 0.16 0.18 0.20 0.20 0.22 0.24 0.24 0.26 0.28 0.34 0.34 0.36 0.38 0.42 0.44 0.42 0.38 0.34 0.32 0.32 0.36 0.42 0.42 0.42 0.46 0.48 0.50 0.56 0.61 0.69 0.71 0.75 0.83 0.89 0.91 0.93 0.97 0.99 0.99 1.01 1.05 1.07 1.07 1.09 1.11 1.11 1.13 1.15 1.17 1.17 1.19 1.21 1.22 1.22 1.22 1.24 1.24 1.26 1.26 1.26 1.28 1.28 1.30 1.32 1.34 1.34 1.36 1.36 1.38
0.18 0.18 0.18 0.18 0.16 0.16 0.16 0.16 0.16 0.16 0.16 0.16 0.16 0.16 0.16 0.16 0.16 0.16 0.16 0.18 0.20 0.22 0.24 0.24 0.28 0.30 0.34 0.34 0.38 0.40 0.44 0.42 0.40 0.38 0.34 0.30 0.28 0.28 0.32 0.34 0.36 0.38 0.40 0.40 0.44 0.52 0.61 0.63 0.69 0.77 0.83 0.85 0.89 0.93 0.97 0.97 0.99 1.01 1.03 1.05 1.07 1.09 1.11 1.11 1.13 1.15 1.15 1.17 1.19 1.21 1.21 1.22 1.22 1.22 1.24 1.26 1.26 1.26 1.28 1.28 1.30 1.30 1.32 1.32 1.34 1.34
0.16 0.16 0.18 0.20 0.18 0.18 0.18 0.18 0.18 0.18 0.18 0.18 0.18 0.18 0.18 0.18 0.18 0.18 0.20 0.20 0.22 0.22 0.24 0.26 0.28 0.28 0.30 0.32 0.36 0.38 0.36 0.38 0.38 0.36 0.34 0.28 0.26 0.28 0.32 0.32 0.32 0.34 0.36 0.38 0.40 0.46 0.50 0.52 0.58 0.63 0.69 0.73 0.79 0.85 0.89 0.91 0.93 0.95 0.97 0.97 1.01 1.05 1.07 1.07 1.09 1.11 1.11 1.13 1.15 1.17 1.17 1.19 1.21 1.21 1.22 1.24 1.24 1.26 1.26 1.28 1.28 1.30 1.30 1.32 1.32 1.34
0.18 0.18 0.18 0.18 0.20 0.20 0.22 0.20 0.20 0.20 0.20 0.20 0.22 0.20 0.20 0.20 0.20 0.22 0.22 0.22 0.22 0.22 0.24 0.24 0.26 0.26 0.22 0.26 0.28 0.28 0.28 0.32 0.34 0.34 0.34 0.28 0.26 0.28 0.30 0.30 0.28 0.30 0.32 0.34 0.38 0.42 0.46 0.48 0.54 0.60 0.65 0.69 0.73 0.81 0.85 0.87 0.89 0.93 0.95 0.95 0.97 0.99 1.01 1.01 1.03 1.05 1.05 1.07 1.11 1.11 1.13 1.15 1.17 1.19 1.19 1.21 1.22 1.22 1.24 1.26 1.28 1.28 1.30 1.30 1.30 1.32
0.20 0.20 0.20 0.20 0.20 0.22 0.22 0.22 0.22 0.22 0.22 0.22 0.22 0.22 0.22 0.22 0.22 0.22 0.22 0.22 0.22 0.20 0.20 0.20 0.20 0.20 0.20 0.22 0.22 0.24 0.24 0.30 0.32 0.32 0.30 0.28 0.26 0.26 0.28 0.30 0.30 0.28 0.28 0.30 0.34 0.36 0.42 0.44 0.48 0.54 0.60 0.61 0.67 0.73 0.79 0.81 0.83 0.87 0.91 0.91 0.93 0.95 0.97 0.97 0.99 1.01 1.03 1.05 1.07 1.09 1.09 1.11 1.13 1.15 1.15 1.17 1.19 1.21 1.22 1.24 1.26 1.26 1.28 1.28 1.30 1.30
0.22 0.22 0.22 0.22 0.22 0.24 0.26 0.26 0.24 0.24 0.24 0.24 0.24 0.24 0.24 0.24 0.22 0.22 0.20 0.20 0.20 0.20 0.18 0.18 0.18 0.18 0.18 0.18 0.20 0.20 0.22 0.28 0.30 0.30 0.28 0.28 0.28 0.28 0.28 0.32 0.30 0.30 0.28 0.30 0.32 0.34 0.36 0.38 0.40 0.44 0.50 0.52 0.56 0.61 0.67 0.71 0.75 0.79 0.83 0.85 0.87 0.89 0.91 0.93 0.95 0.97 0.97 0.99 1.03 1.05 1.05 1.07 1.09 1.11 1.11 1.13 1.15 1.15 1.17 1.21 1.22 1.22 1.26 1.26 1.28 1.28
0.22 0.22 0.24 0.24 0.24 0.24 0.26 0.26 0.26 0.26 0.26 0.26 0.26 0.26 0.26 0.24 0.22 0.22 0.20 0.20 0.20 0.20 0.18 0.16 0.16 0.16 0.16 0.16 0.18 0.18 0.20 0.24 0.28 0.30 0.30 0.30 0.30 0.28 0.30 0.32 0.32 0.30 0.30 0.30 0.30 0.32 0.34 0.36 0.38 0.42 0.46 0.48 0.52 0.58 0.63 0.65 0.71 0.75 0.81 0.81 0.83 0.87 0.89 0.89 0.91 0.93 0.95 0.97 1.01 1.03 1.03 1.05 1.07 1.09 1.09 1.11 1.13 1.13 1.15 1.19 1.21 1.21 1.22 1.24 1.24 1.26
0.20 0.22 0.22 0.22 0.24 0.24 0.24 0.26 0.26 0.28 0.28 0.28 0.28 0.28 0.28 0.26 0.22 0.20 0.20 0.20 0.20 0.20 0.18 0.16 0.16 0.16 0.16 0.16 0.16 0.18 0.20 0.22 0.24 0.28 0.32 0.32 0.30 0.28 0.28 0.32 0.32 0.32 0.30 0.30 0.30 0.32 0.32 0.34 0.36 0.38 0.42 0.44 0.48 0.52 0.58 0.61 0.65 0.69 0.75 0.75 0.79 0.81 0.85 0.85 0.87 0.91 0.93 0.95 0.97 0.99 1.01 1.03 1.05 1.07 1.07 1.09 1.09 1.11 1.13 1.15 1.17 1.19 1.21 1.21 1.22 1.22
0.20 0.20 0.20 0.22 0.22 0.22 0.22 0.24 0.26 0.26 0.28 0.28 0.28 0.28 0.28 0.28 0.24 0.22 0.22 0.22 0.22 0.20 0.18 0.18 0.18 0.18 0.18 0.18 0.18 0.18 0.20 0.20 0.24 0.28 0.32 0.28 0.26 0.28 0.30 0.32 0.32 0.32 0.30 0.30 0.30 0.30 0.30 0.32 0.34 0.36 0.38 0.40 0.44 0.48 0.52 0.54 0.58 0.63 0.67 0.69 0.73 0.77 0.79 0.81 0.83 0.85 0.89 0.91 0.93 0.95 0.97 0.99 1.01 1.03 1.05 1.05 1.07 1.09 1.11 1.13 1.15 1.15 1.17 1.19 1.19 1.19
0.18 0.18 0.20 0.20 0.20 0.20 0.22 0.22 0.24 0.24 0.26 0.26 0.26 0.28 0.28 0.26 0.26 0.24 0.24 0.24 0.24 0.22 0.20 0.20 0.20 0.20 0.20 0.18 0.18 0.18 0.18 0.20 0.24 0.26 0.30 0.26 0.26 0.26 0.30 0.30 0.32 0.32 0.32 0.32 0.30 0.28 0.28 0.32 0.34 0.36 0.38 0.40 0.42 0.46 0.50 0.52 0.56 0.60 0.63 0.65 0.69 0.73 0.77 0.77 0.81 0.83 0.87 0.89 0.91 0.93 0.95 0.97 0.99 1.01 1.03 1.05 1.05 1.07 1.09 1.11 1.11 1.13 1.13 1.15 1.15 1.15
0.18 0.18 0.18 0.18 0.20 0.20 0.20 0.20 0.22 0.22 0.22 0.24 0.24 0.26 0.26 0.26 0.24 0.24 0.24 0.24 0.24 0.22 0.20 0.20 0.20 0.20 0.20 0.20 0.18 0.18 0.18 0.20 0.22 0.26 0.28 0.26 0.26 0.26 0.30 0.30 0.30 0.32 0.34 0.34 0.30 0.26 0.24 0.26 0.30 0.34 0.36 0.36 0.38 0.42 0.46 0.48 0.50 0.54 0.58 0.60 0.63 0.67 0.71 0.73 0.77 0.79 0.83 0.85 0.87 0.89 0.91 0.93 0.95 0.97 0.99 1.01 1.03 1.05 1.05 1.07 1.09 1.09 1.11 1.11 1.09 1.09
0.18 0.18 0.18 0.18 0.20 0.20 0.20 0.20 0.20 0.20 0.20 0.22 0.22 0.24 0.24 0.24 0.24 0.24 0.24 0.24 0.24 0.24 0.22 0.22 0.22 0.22 0.22 0.20 0.18 0.18 0.20 0.22 0.24 0.26 0.28 0.26 0.28 0.30 0.32 0.30 0.30 0.32 0.34 0.34 0.30 0.26 0.24 0.24 0.26 0.30 0.32 0.32 0.34 0.38 0.40 0.42 0.46 0.50 0.54 0.54 0.58 0.61 0.65 0.69 0.71 0.75 0.79 0.81 0.83 0.87 0.89 0.89 0.91 0.95 0.95 0.99 1.01 1.03 1.05 1.07 1.07 1.07 1.07 1.07 1.07 1.05
0.20 0.20 0.20 0.20 0.20 0.20 0.20 0.20 0.20 0.20 0.20 0.20 0.22 0.22 0.22 0.22 0.22 0.22 0.22 0.24 0.24 0.24 0.24 0.24 0.22 0.22 0.22 0.22 0.22 0.22 0.24 0.24 0.26 0.26 0.28 0.28 0.28 0.28 0.30 0.30 0.30 0.30 0.34 0.34 0.32 0.30 0.26 0.26 0.26 0.28 0.30 0.30 0.32 0.34 0.38 0.40 0.44 0.48 0.52 0.52 0.54 0.56 0.60 0.63 0.67 0.71 0.73 0.77 0.79 0.83 0.85 0.87 0.89 0.91 0.91 0.95 0.97 0.99 1.01 1.03 1.05 1.05 1.05 1.05 1.03 1.03
0.20 0.20 0.20 0.20 0.20 0.20 0.20 0.20 0.20 0.20 0.20 0.20 0.20 0.22 0.22 0.22 0.22 0.22 0.22 0.22 0.22 0.24 0.24 0.24 0.24 0.24 0.24 0.24 0.22 0.24 0.24 0.26 0.28 0.30 0.30 0.30 0.28 0.28 0.28 0.28 0.28 0.28 0.32 0.32 0.32 0.30 0.30 0.28 0.28 0.26 0.26 0.28 0.30 0.30 0.34 0.36 0.40 0.44 0.48 0.50 0.52 0.54 0.56 0.60 0.63 0.65 0.69 0.73 0.75 0.79 0.81 0.83 0.85 0.87 0.89 0.91 0.93 0.97 0.97 1.01 1.01 1.03 1.03 1.03 1.01 1.01
0.20 0.20 0.20 0.20 0.20 0.20 0.20 0.20 0.20 0.20 0.20 0.20 0.20 0.22 0.22 0.22 0.22 0.22 0.22 0.22 0.22 0.22 0.24 0.24 0.26 0.26 0.26 0.24 0.24 0.24 0.26 0.28 0.32 0.34 0.32 0.30 0.30 0.30 0.30 0.30 0.30 0.30 0.30 0.30 0.32 0.30 0.30 0.30 0.28 0.28 0.26 0.26 0.26 0.28 0.30 0.34 0.38 0.42 0.46 0.48 0.50 0.52 0.56 0.60 0.61 0.65 0.69 0.71 0.73 0.77 0.79 0.81 0.83 0.85 0.87 0.89 0.93 0.93 0.93 0.95 0.97 0.99 0.99 0.99 0.99 0.99
0.20 0.20 0.20 0.20 0.20 0.20 0.18 0.18 0.18 0.20 0.20 0.20 0.20 0.22 0.22 0.22 0.22 0.22 0.22 0.22 0.22 0.22 0.22 0.24 0.24 0.26 0.26 0.26 0.26 0.26 0.28 0.30 0.32 0.34 0.34 0.32 0.30 0.30 0.30 0.30 0.30 0.32 0.30 0.32 0.32 0.32 0.30 0.30 0.30 0.28 0.26 0.26 0.24 0.24 0.26 0.30 0.34 0.36 0.40 0.42 0.46 0.48 0.52 0.56 0.58 0.61 0.63 0.65 0.67 0.71 0.75 0.77 0.79 0.81 0.83 0.85 0.89 0.91 0.91 0.93 0.95 0.95 0.95 0.97 0.99 0.99
0.22 0.20 0.20 0.20 0.20 0.20 0.20 0.20 0.20 0.20 0.20 0.20 0.20 0.22 0.22 0.22 0.22 0.24 0.24 0.24 0.24 0.24 0.22 0.22 0.24 0.24 0.26 0.26 0.28 0.28 0.28 0.30 0.32 0.32 0.32 0.30 0.30 0.30 0.28 0.28 0.30 0.30 0.32 0.30 0.32 0.32 0.32 0.32 0.32 0.30 0.28 0.26 0.24 0.24 0.24 0.28 0.30 0.32 0.36 0.40 0.42 0.46 0.50 0.54 0.56 0.60 0.61 0.63 0.65 0.67 0.71 0.75 0.77 0.79 0.81 0.83 0.87 0.87 0.89 0.91 0.93 0.93 0.93 0.95 0.95 0.95
0.24 0.22 0.22 0.22 0.22 0.22 0.22 0.20 0.20 0.20 0.22 0.22 0.22 0.22 0.22 0.22 0.24 0.24 0.24 0.24 0.24 0.24 0.24 0.24 0.24 0.24 0.26 0.26 0.26 0.28 0.28 0.28 0.28 0.30 0.30 0.28 0.28 0.28 0.28 0.26 0.28 0.30 0.30 0.30 0.32 0.34 0.34 0.32 0.32 0.30 0.28 0.26 0.26 0.26 0.26 0.28 0.28 0.30 0.34 0.38 0.42 0.44 0.48 0.52 0.56 0.58 0.60 0.61 0.65 0.67 0.67 0.69 0.73 0.75 0.77 0.79 0.81 0.83 0.83 0.85 0.87 0.89 0.91 0.91 0.93 0.93
0.24 0.24 0.24 0.24 0.24 0.24 0.24 0.22 0.22 0.24 0.24 0.24 0.24 0.24 0.24 0.24 0.24 0.24 0.24 0.24 0.24 0.24 0.24 0.24 0.24 0.24 0.26 0.26 0.26 0.28 0.28 0.28 0.28 0.28 0.28 0.28 0.28 0.26 0.26 0.26 0.26 0.28 0.30 0.30 0.32 0.32 0.34 0.32 0.32 0.30 0.30 0.28 0.28 0.28 0.28 0.28 0.28 0.28 0.30 0.34 0.36 0.38 0.42 0.46 0.50 0.54 0.56 0.58 0.60 0.63 0.65 0.67 0.71 0.73 0.75 0.77 0.79 0.79 0.79 0.81 0.85 0.87 0.87 0.89 0.91 0.93
0.24 0.24 0.24 0.24 0.24 0.24 0.24 0.24 0.24 0.24 0.26 0.26 0.26 0.26 0.26 0.26 0.26 0.26 0.26 0.26 0.26 0.26 0.26 0.26 0.26 0.26 0.26 0.26 0.28 0.28 0.28 0.28 0.28 0.28 0.28 0.28 0.28 0.28 0.28 0.28 0.28 0.26 0.26 0.26 0.28 0.28 0.30 0.32 0.32 0.32 0.32 0.30 0.30 0.28 0.28 0.28 0.28 0.28 0.30 0.32 0.32 0.34 0.40 0.44 0.48 0.52 0.54 0.56 0.60 0.61 0.63 0.67 0.69 0.71 0.73 0.75 0.75 0.77 0.77 0.77 0.79 0.81 0.83 0.85 0.85 0.85
0.24 0.24 0.24 0.24 0.24 0.24 0.24 0.24 0.26 0.26 0.26 0.28 0.28 0.28 0.28 0.28 0.28 0.26 0.26 0.26 0.28 0.28 0.28 0.26 0.26 0.26 0.26 0.26 0.28 0.28 0.28 0.28 0.28 0.28 0.28 0.28 0.28 0.28 0.28 0.30 0.28 0.28 0.28 0.26 0.26 0.26 0.28 0.30 0.30 0.32 0.32 0.32 0.30 0.30 0.30 0.28 0.28 0.30 0.30 0.28 0.30 0.34 0.40 0.44 0.48 0.50 0.50 0.52 0.56 0.58 0.60 0.61 0.63 0.67 0.69 0.71 0.73 0.75 0.77 0.77 0.79 0.81 0.81 0.83 0.83 0.81
0.26 0.24 0.24 0.26 0.26 0.26 0.26 0.26 0.26 0.26 0.28 0.28 0.28 0.28 0.28 0.30 0.28 0.28 0.28 0.28 0.28 0.26 0.26 0.26 0.24 0.24 0.24 0.26 0.26 0.28 0.28 0.28 0.28 0.28 0.28 0.30 0.30 0.30 0.30 0.32 0.30 0.30 0.28 0.26 0.26 0.26 0.26 0.28 0.28 0.30 0.30 0.30 0.32 0.32 0.30 0.30 0.32 0.32 0.30 0.30 0.30 0.32 0.36 0.38 0.42 0.46 0.48 0.52 0.54 0.58 0.60 0.61 0.63 0.65 0.67 0.69 0.73 0.75 0.77 0.79 0.79 0.79 0.79 0.79 0.81 0.83
0.26 0.26 0.26 0.28 0.28 0.28 0.26 0.26 0.26 0.28 0.28 0.28 0.28 0.28 0.30 0.30 0.30 0.28 0.28 0.28 0.26 0.26 0.26 0.26 0.24 0.24 0.26 0.26 0.26 0.28 0.30 0.30 0.32 0.32 0.32 0.34 0.36 0.34 0.34 0.34 0.34 0.34 0.32 0.30 0.28 0.26 0.26 0.26 0.26 0.26 0.28 0.30 0.32 0.32 0.30 0.30 0.32 0.32 0.32 0.30 0.32 0.32 0.32 0.36 0.40 0.44 0.48 0.50 0.54 0.56 0.58 0.60 0.61 0.63 0.63 0.65 0.69 0.71 0.73 0.75 0.77 0.79 0.79 0.79 0.81 0.81
0.28 0.28 0.28 0.30 0.30 0.30 0.30 0.30 0.28 0.28 0.28 0.28 0.28 0.28 0.28 0.28 0.28 0.30 0.30 0.28 0.28 0.28 0.26 0.26 0.26 0.28 0.30 0.28 0.28 0.30 0.32 0.34 0.36 0.36 0.36 0.38 0.40 0.38 0.38 0.38 0.38 0.36 0.34 0.30 0.28 0.26 0.26 0.26 0.26 0.26 0.28 0.32 0.32 0.32 0.32 0.32 0.32 0.32 0.32 0.32 0.32 0.30 0.30 0.30 0.34 0.40 0.42 0.46 0.50 0.52 0.56 0.58 0.60 0.61 0.63 0.65 0.67 0.69 0.73 0.73 0.75 0.77 0.79 0.79 0.79 0.79
0.30 0.30 0.30 0.30 0.30 0.30 0.30 0.30 0.30 0.30 0.28 0.28 0.26 0.26 0.26 0.26 0.28 0.28 0.28 0.28 0.28 0.28 0.28 0.28 0.28 0.28 0.28 0.30 0.30 0.32 0.32 0.34 0.36 0.36 0.38 0.38 0.38 0.40 0.40 0.40 0.40 0.38 0.36 0.34 0.30 0.28 0.26 0.24 0.26 0.26 0.26 0.30 0.32 0.32 0.32 0.32 0.34 0.34 0.32 0.32 0.32 0.32 0.32 0.34 0.38 0.40 0.42 0.46 0.48 0.52 0.54 0.58 0.60 0.60 0.61 0.61 0.63 0.67 0.69 0.69 0.69 0.71 0.75 0.75 0.77 0.79
0.28 0.30 0.30 0.28 0.28 0.30 0.30 0.30 0.28 0.28 0.28 0.26 0.26 0.26 0.26 0.26 0.26 0.28 0.28 0.28 0.28 0.28 0.26 0.26 0.26 0.26 0.26 0.28 0.30 0.30 0.28 0.30 0.30 0.30 0.30 0.28 0.30 0.36 0.40 0.40 0.40 0.42 0.40 0.40 0.38 0.36 0.34 0.28 0.28 0.26 0.26 0.28 0.30 0.32 0.34 0.34 0.34 0.32 0.32 0.32 0.32 0.32 0.34 0.36 0.38 0.40 0.42 0.44 0.48 0.50 0.52 0.54 0.56 0.56 0.56 0.56 0.58 0.61 0.63 0.65 0.67 0.69 0.73 0.73 0.75 0.77
0.28 0.28 0.28 0.26 0.26 0.26 0.28 0.28 0.28 0.26 0.26 0.26 0.24 0.24 0.24 0.24 0.24 0.26 0.26 0.26 0.26 0.26 0.26 0.26 0.24 0.22 0.22 0.22 0.24 0.24 0.24 0.24 0.24 0.24 0.24 0.24 0.26 0.30 0.36 0.36 0.40 0.42 0.42 0.40 0.40 0.38 0.36 0.32 0.30 0.30 0.26 0.26 0.28 0.30 0.34 0.34 0.34 0.32 0.32 0.32 0.30 0.30 0.30 0.32 0.36 0.38 0.42 0.42 0.46 0.48 0.52 0.54 0.54 0.54 0.54 0.56 0.58 0.60 0.61 0.63 0.67 0.69 0.71 0.71 0.71 0.73
0.26 0.26 0.26 0.26 0.26 0.26 0.26 0.26 0.26 0.26 0.24 0.24 0.24 0.24 0.24 0.24 0.24 0.24 0.24 0.26 0.26 0.26 0.26 0.24 0.22 0.22 0.20 0.20 0.22 0.22 0.20 0.20 0.20 0.20 0.20 0.20 0.22 0.26 0.30 0.32 0.36 0.38 0.42 0.42 0.42 0.40 0.38 0.36 0.34 0.34 0.32 0.28 0.26 0.26 0.28 0.32 0.34 0.32 0.32 0.30 0.30 0.30 0.30 0.32 0.36 0.40 0.42 0.44 0.46 0.48 0.50 0.52 0.52 0.52 0.54 0.52 0.54 0.54 0.58 0.60 0.61 0.65 0.67 0.69 0.71 0.73
0.26 0.26 0.26 0.26 0.26 0.26 0.26 0.26 0.26 0.26 0.24 0.24 0.24 0.24 0.26 0.26 0.24 0.24 0.24 0.24 0.24 0.24 0.24 0.24 0.22 0.22 0.20 0.20 0.20 0.20 0.20 0.18 0.18 0.18 0.18 0.18 0.20 0.22 0.22 0.24 0.28 0.32 0.36 0.38 0.38 0.38 0.40 0.40 0.40 0.38 0.36 0.30 0.28 0.26 0.26 0.30 0.32 0.32 0.32 0.32 0.30 0.30 0.30 0.32 0.36 0.40 0.42 0.42 0.44 0.46 0.48 0.50 0.52 0.52 0.52 0.52 0.52 0.52 0.56 0.56 0.60 0.63 0.65 0.67 0.69 0.71
0.26 0.26 0.26 0.26 0.26 0.26 0.26 0.26 0.26 0.26 0.26 0.26 0.26 0.26 0.26 0.26 0.26 0.24 0.24 0.24 0.24 0.24 0.24 0.22 0.22 0.22 0.22 0.20 0.20 0.20 0.20 0.20 0.18 0.18 0.18 0.18 0.18 0.20 0.20 0.22 0.26 0.28 0.30 0.34 0.34 0.32 0.36 0.38 0.38 0.36 0.36 0.34 0.32 0.30 0.28 0.28 0.30 0.30 0.32 0.32 0.32 0.32 0.32 0.32 0.34 0.38 0.40 0.42 0.44 0.46 0.48 0.50 0.52 0.52 0.52 0.52 0.50 0.52 0.54 0.54 0.54 0.58 0.61 0.65 0.67 0.69
0.26 0.26 0.26 0.26 0.26 0.26 0.26 0.26 0.26 0.26 0.26 0.26 0.26 0.26 0.26 0.26 0.26 0.26 0.26 0.24 0.24 0.24 0.24 0.24 0.22 0.22 0.22 0.22 0.20 0.20 0.20 0.20 0.20 0.20 0.18 0.20 0.20 0.20 0.20 0.22 0.22 0.24 0.24 0.26 0.26 0.26 0.28 0.30 0.30 0.30 0.32 0.36 0.36 0.34 0.30 0.28 0.28 0.28 0.30 0.32 0.32 0.34 0.32 0.32 0.34 0.36 0.40 0.42 0.44 0.46 0.48 0.50 0.50 0.50 0.50 0.50 0.50 0.48 0.50 0.52 0.54 0.56 0.61 0.61 0.63 0.67
Wind_Speed
23 24 25 26 26 27 27 28 28 29 29 30 31 31 31 31 31 31 30 30 31 31 30 30 30 31 31 32 33 35 36 37 39 41 42 44 45 46 46 47 47 48 48 49 50 50 51 51 50 50 50 50 50 49 49 50 50 50 50 49 49 49 49 49 49 50 50 50 50 49 48 47 46 46 46 46 46 46 47 47 48 49 50 50 51 51
22 23 24 25 26 27 27 28 28 28 29 30 30 30 31 30 31 30 30 30 30 31 32 32 32 32 32 32 32 33 35 36 38 39 40 41 42 43 44 45 46 47 48 48 49 50 50 51 51 51 51 51 51 50 50 50 50 50 50 50 50 50 49 49 49 49 49 50 50 50 50 49 49 48 48 47 47 46 46 46 47 48 49 50 50 51
21 22 23 24 24 25 26 27 28 29 29 29 30 30 30 30 30 30 30 30 29 30 31 31 32 33 33 33 34 34 35 36 38 39 40 41 42 42 42 44 45 46 47 48 49 49 49 50 50 51 51 51 51 51 51 51 51 51 51 51 51 51 50 50 50 50 50 50 50 50 50 50 50 50 50 49 49 48 47 46 47 47 49 49 50 50
21 22 22 23 23 24 25 26 27 28 29 29 30 30 30 30 30 30 30 30 30 30 30 30 31 31 32 33 33 34 35 36 38 39 40 41 42 42 42 43 44 46 48 49 50 50 50 50 50 50 51 51 51 52 52 52 51 51 51 51 51 51 51 51 51 51 51 50 50 50 51 51 51 51 51 51 50 49 48 48 47 48 49 50 50 50
23 23 23 23 23 24 25 25 26 27 28 29 29 30 30 30 30 30 31 31 31 31 31 31 31 31 31 31 31 32 33 34 36 37 38 39 41 42 42 43 44 45 47 49 51 51 51 51 51 51 51 52 52 52 52 52 52 52 52 52 52 52 52 52 52 52 52 52 52 52 52 52 52 52 52 52 51 51 50 49 49 49 50 50 51 51
26 25 24 24 24 24 25 25 26 26 27 28 29 29 30 30 30 30 31 31 31 32 32 32 32 32 32 32 31 31 32 32 33 34 35 36 38 39 41 42 43 44 46 48 50 52 53 53 53 53 53 53 53 53 53 53 53 53 53 54 54 54 54 54 54 54 54 53 53 53 53 53 53 53 53 53 53 52 51 51 50 50 50 51 51 51
30 29 27 27 26 26 26 26 26 26 27 27 28 29 30 30 31 31 31 32 32 32 33 33 33 33 33 33 33 33 32 32 32 33 33 34 35 37 38 40 42 43 45 47 49 51 52 53 54 54 54 55 55 54 54 54 54 54 54 55 55 55 56 56 56 56 56 56 55 55 55 55 55 54 54 54 54 54 53 52 51 51 51 51 51 51
33 32 31 30 29 29 28 27 27 27 27 28 28 29 30 31 31 32 32 32 33 33 33 34 34 34 34 34 34 35 34 34 34 33 33 33 34 34 35 37 39 40 42 44 46 48 50 51 52 54 55 55 56 56 56 56 56 56 56 56 56 56 56 57 57 57 58 58 58 58 57 57 56 56 55 55 55 55 54 54 53 52 51 51 50 50
35 35 34 34 33 32 31 30 29 29 29 29 29 29 30 30 31 32 32 33 33 34 34 34 34 35 35 35 35 35 36 36 36 35 35 34 34 34 34 35 36 37 39 41 43 45 47 48 50 51 53 54 55 56 57 57 57 58 57 57 57 57 57 57 57 57 58 59 59 60 59 59 58 57 56 55 55 55 55 55 54 53 52 51 50 50
35 36 36 36 35 35 34 34 33 32 31 31 30 30 30 31 31 32 32 33 33 34 34 35 35 36 36 36 36 36 36 37 37 37 37 36 36 36 35 35 35 36 37 38 40 42 44 45 47 49 50 52 53 54 56 57 58 59 59 59 59 59 58 57 57 57 58 59 60 60 60 60 59 58 57 56 56 56 56 56 55 54 53 52 51 51
36 36 37 37 37 37 37 36 36 35 34 33 33 32 32 32 32 32 32 33 34 34 35 35 36 36 36 36 36 36 36 37 37 38 38 38 38 37 37 37 36 36 37 37 38 39 41 42 44 46 47 49 50 52 53 55 57 58 60 61 61 62 61 60 59 59 59 59 59 59 60 60 60 59 59 58 57 56 56 56 55 55 54 54 53 52
36 37 37 38 38 38 38 38 38 37 36 35 34 34 34 33 33 33 33 34 34 34 35 35 36 36 36 37 37 37 37 37 37 38 38 38 38 38 38 38 37 37 37 37 38 38 39 40 41 43 44 46 47 49 51 52 54 56 58 59 61 63 64 64 63 63 62 61 60 60 59 59 60 60 60 59 58 57 56 55 55 55 55 55 54 54
37 38 38 38 39 39 39 39 39 39 38 37 37 36 36 36 35 35 35 35 35 35 35 36 36 37 37 37 37 37 37 38 38 38 38 38 38 38 38 38 38 38 38 38 38 38 38 39 40 41 42 43 44 46 47 49 51 53 54 56 58 61 63 64 65 66 66 65 64 62 60 59 59 60 60 60 59 58 57 55 55 55 55 55 55 55
39 39 39 39 40 40 40 40 40 40 40 39 39 39 39 38 37 37 37 37 37 37 36 36 37 37 37 37 37 37 37 38 38 38 38 39 39 39 38 39 39 39 38 38 38 38 39 39 39 40 40 41 42 43 44 45 47 49 50 52 54 56 58 61 63 65 66 67 66 65 63 61 60 60 61 61 60 59 58 57 56 56 55 55 55 55
40 40 40 41 41 41 41 41 41 41 41 41 41 41 41 40 40 39 39 39 39 38 38 37 38 38 37 37 37 37 37 38 38 38 39 39 39 39 39 39 40 40 39 39 39 39 40 39 39 40 40 40 41 41 42 42 43 45 46 48 49 51 53 55 57 60 62 64 65 65 65 64 62 62 61 61 61 60 60 59 58 57 56 56 56 56
41 41 42 42 42 42 42 42 42 43 43 43 42 42 42 41 41 41 41 40 40 39 39 38 38 38 38 38 38 37 38 38 38 39 39 40 40 40 40 40 40 41 40 40 40 40 40 40 40 41 41 41 41 41 41 41 42 42 43 44 45 46 48 49 51 53 56 58 60 62 63 63 63 62 62 61 61 61 61 60 59 58 58 58 58 58
43 43 44 44 44 44 44 44 44 44 44 44 44 43 43 43 43 42 42 42 41 40 40 40 39 39 39 39 39 38 38 38 39 40 40 40 40 41 40 40 41 41 41 41 41 41 41 41 41 41 42 42 42 42 42 41 41 41 42 42 43 44 45 46 47 48 50 52 55 57 59 60 61 62 61 61 61 61 61 61 60 60 59 59 59 59
45 45 45 45 45 45 45 45 45 45 45 45 45 45 45 44 44 43 43 43 42 42 42 42 41 40 40 40 40 40 39 39 40 41 41 41 41 41 41 41 41 42 42 42 42 42 42 42 42 42 42 43 43 42 42 42 42 42 42 42 42 43 43 44 45 46 47 49 51 53 55 57 59 60 61 61 61 61 61 61 61 60 60 59 59 60
47 47 47 47 47 47 47 46 46 46 46 46 46 46 46 45 45 44 44 44 44 44 44 43 43 43 42 42 42 41 40 40 41 41 41 42 42 41 41 41 41 42 42 42 42 42 42 43 43 43 44 44 43 43 43 43 43 43 42 42 42 43 43 43 44 45 46 47 48 50 52 54 57 58 60 61 61 61 61 61 61 61 61 60 60 59
49 49 49 49 49 49 49 48 48 48 48 48 48 47 47 47 46 46 46 46 45 45 45 45 45 44 44 44 43 43 41 41 41 42 42 43 42 42 41 41 42 42 43 43 42 42 43 43 44 44 44 44 44 44 44 44 44 43 43 43 43 43 43 43 43 44 45 45 46 48 49 51 53 56 58 60 61 61 62 62 62 62 62 61 61 60
51 51 51 50 50 50 50 50 49 49 49 49 49 49 49 49 48 48 47 47 46 46 46 45 45 45 44 44 44 43 42 41 42 42 43 43 43 43 42 42 42 43 43 43 43 43 43 43 44 44 44 45 45 45 45 45 44 44 44 44 44 43 43 43 43 43 44 44 44 45 46 48 49 52 54 57 59 60 62 62 62 62 62 62 62 61
51 52 52 51 51 51 52 51 51 51 50 50 50 50 50 49 49 49 49 48 47 47 47 47 47 46 46 45 45 44 43 43 43 44 44 44 45 44 43 43 43 43 44 44 43 43 43 43 44 44 45 45 45 45 45 45 45 45 45 45 44 44 44 44 44 44 44 44 44 44 44 45 46 47 49 52 54 57 59 60 61 62 62 62 62 62
52 52 52 52 52 53 53 53 52 52 52 51 51 51 51 50 50 50 50 49 49 49 49 49 49 48 48 48 47 47 46 45 45 45 45 45 46 46 44 43 43 44 45 44 44 43 43 43 44 45 45 45 46 46 46 46 46 46 46 45 45 45 45 45 44 44 44 44 44 44 44 44 44 45 46 47 49 51 54 56 57 58 59 60 60 60
53 53 52 52 53 53 53 53 53 53 53 53 53 53 52 52 52 52 52 51 51 51 51 51 51 50 50 50 49 48 48 47 47 46 46 47 47 47 45 44 44 45 45 45 44 44 44 44 44 45 45 45 46 46 46 46 46 46 47 46 46 46 46 45 45 45 45 45 44 44 44 44 44 44 44 45 46 47 49 50 52 53 55 56 57 58
53 53 53 53 53 53 54 54 54 54 54 54 54 54 54 53 54 53 53 53 53 52 52 52 52 51 51 50 50 49 48 48 47 46 47 47 48 48 46 45 45 46 46 46 45 44 44 44 44 44 44 45 45 46 46 46 47 47 47 47 47 47 47 46 46 45 45 45 45 45 45 45 45 45 45 45 45 46 47 47 48 49 50 52 53 54
54 54 54 54 54 55 55 55 56 56 56 55 55 54 54 54 54 54 54 54 53 53 52 52 53 53 52 51 50 49 49 48 47 47 47 47 48 48 47 46 46 46 47 46 45 45 45 45 45 45 44 44 45 46 46 46 47 47 47 48 48 48 48 47 47 46 46 46 46 45 45 45 45 45 45 46 46 46 46 47 47 48 48 49 50 51
55 55 56 56 56 56 56 57 57 57 58 57 57 56 55 55 55 55 55 55 54 53 52 52 53 53 52 51 51 50 49 48 47 47 47 47 48 48 48 47 46 46 47 47 46 46 46 46 46 45 45 45 45 45 46 46 46 47 47 47 48 48 48 48 48 48 47 47 46 46 46 46 46 46 46 46 46 47 47 47 48 48 48 48 48 49
55 56 56 56 56 56 57 57 57 58 58 58 58 58 56 55 55 55 56 55 54 53 53 53 53 52 51 51 51 51 50 49 48 48 48 48 48 49 49 48 47 47 47 47 47 47 47 47 47 46 46 45 45 45 45 45 46 46 46 47 47 48 48 48 48 48 48 48 47 47 46 46 46 45 45 46 46 47 47 48 48 48 47 47 47 47
56 56 56 56 57 57 57 57 57 57 58 58 58 58 57 56 55 56 56 55 54 54 55 55 54 53 53 53 53 52 51 51 50 49 48 48 49 50 50 48 48 48 48 48 48 47 47 47 47 46 46 45 45 44 44 44 45 45 45 46 46 47 47 48 48 48 49 49 48 48 47 46 46 45 45 45 46 46 47 47 47 46 46 46 45 45
56 56 56 57 57 57 57 56 56 57 57 58 58 57 57 56 56 56 56 55 54 55 56 56 55 54 54 53 53 52 52 52 51 49 48 48 49 51 50 49 48 48 48 47 47 47 47 48 47 46 46 45 45 44 44 44 44 44 45 45 45 46 46 47 47 48 48 48 48 48 47 47 46 46 45 45 45 45 46 46 45 45 44 44 44 43
56 56 56 57 57 57 57 57 57 57 57 58 58 57 57 56 56 56 56 55 55 56 56 56 55 55 54 53 52 51 51 52 50 48 47 48 49 50 49 49 49 49 49 48 47 46 47 47 47 46 46 45 45 45 45 45 44 44 44 45 45 45 45 46 46 47 47 47 47 47 47 47 46 46 45 44 44 44 44 44 44 43 43 42 42 42
56 56 56 57 57 57 57 57 57 57 57 57 57 57 57 57 57 56 56 56 56 56 56 56 56 56 55 54 54 53 53 52 51 49 48 48 50 50 49 49 50 50 50 49 49 48 48 47 47 47 47 47 47 47 46 46 45 45 45 45 45 45 45 45 45 45 46 46 46 47 47 46 46 45 45 44 43 43 43 43 43 42 42 42 41 41
55 56 56 56 56 56 57 57 57 57 57 57 57 57 57 57 57 57 56 56 56 56 56 56 56 56 56 56 56 56 55 54 53 51 50 50 50 51 50 50 50 51 51 51 51 51 50 50 50 50 49 49 48 48 47 47 46 46 45 45 45 45 45 45 44 45 45 45 45 46 46 46 45 45 44 43 43 42 42 42 42 42 42 41 41 41
55 55 56 56 56 56 56 57 57 57 57 57 57 57 57 57 57 57 57 57 56 56 56 56 56 56 56 56 56 57 56 55 54 53 52 51 51 51 51 50 51 51 51 51 52 52 52 52 51 51 50 50 50 49 48 47 47 46 46 45 45 45 45 44 44 44 45 45 45 45 45 45 45 44 43 43 42 42 41 41 41 41 41 41 42 41
54 55 55 55 55 55 56 56 56 56 56 56 57 57 57 57 57 57 57 57 57 57 57 56 56 56 56 56 56 56 56 55 54 53 52 52 52 52 52 51 52 52 52 52 52 52 52 53 52 52 51 51 51 50 49 48 47 46 46 46 45 45 45 44 44 44 44 44 44 44 45 44 44 44 43 43 42 42 42 42 41 41 41 42 42 42
53 54 54 54 54 54 55 55 55 55 56 56 56 56 56 56 56 57 57 57 57 57 57 57 57 57 56 56 56 56 56 55 54 53 52 52 52 52 52 52 52 52 52 52 53 53 53 53 53 52 52 51 51 51 50 49 48 47 47 46 46 45 45 45 44 44 44 44 44 44 44 44 44 44 43 43 43 43 42 42 42 42 42 42 42 42
51 52 52 52 52 53 53 54 54 54 54 55 55 55 55 55 55 56 56 56 56 56 57 57 57 57 57 57 57 56 56 55 54 54 54 54 53 53 53 54 54 53 53 53 53 53 53 53 53 53 52 52 52 51 51 50 49 48 48 47 46 46 45 45 45 45 45 45 45 44 44 44 44 44 44 43 43 43 43 43 43 42 42 42 42 42
49 50 50 50 50 50 51 51 52 52 52 53 53 53 54 54 54 55 55 55 55 56 56 56 57 57 58 58 57 57 57 56 55 55 55 55 54 54 55 55 55 54 54 54 54 54 53 53 53 52 52 53 53 52 52 51 50 49 49 48 47 47 46 46 45 45 45 45 45 45 45 45 45 44 44 44 43 43 43 43 43 42 42 42 41 41
46 46 46 47 47 47 48 48 49 50 50 50 51 51 52 52 53 53 53 54 54 54 55 55 56 56 57 57 58 57 57 56 56 56 56 55 55 55 55 55 55 56 55 55 55 55 55 54 54 53 53 53 53 53 52 52 51 51 50 49 48 48 47 47 46 46 46 46 46 46 45 45 45 45 44 44 44 43 43 43 43 43 42 42 41 41
42 42 43 43 43 44 44 45 46 46 47 47 48 49 49 50 51 51 52 52 53 53 54 54 54 55 56 56 57 57 56 56 56 56 55 55 55 55 55 56 56 56 56 56 56 56 56 56 56 55 55 54 54 53 53 52 52 51 50 49 49 48 48 47 47 46 46 46 46 46 46 45 45 45 45 45 45 44 44 44 44 44 43 42 42 41
40 40 40 40 41 41 41 42 42 43 43 44 45 46 46 47 48 49 49 50 50 51 51 51 52 53 54 55 55 55 55 55 55 54 54 54 54 55 55 56 56 56 56 56 57 57 57 57 57 56 56 55 55 55 54 54 53 52 51 50 50 50 49 48 47 47 47 46 46 46 46 46 46 45 45 45 45 45 45 45 45 45 44 44 44 43
38 38 38 38 38 39 39 40 40 40 41 41 42 43 44 44 45 46 46 47 48 48 49 49 50 51 52 53 53 53 53 52 52 52 52 52 53 53 54 55 55 56 56 56 57 57 58 58 57 57 56 56 55 55 55 55 54 53 52 52 51 50 49 49 48 48 47 47 47 47 47 47 46 46 46 46 46 46 46 46 46 46 46 46 45 45
37 37 37 37 37 38 38 38 38 38 38 39 39 40 41 42 42 43 44 45 46 46 47 47 48 49 49 50 50 50 50 50 50 50 50 51 51 52 52 53 54 54 55 55 56 57 57 57 57 57 57 56 56 56 56 56 55 54 53 53 52 50 49 49 49 48 47 47 47 47 47 47 47 47 47 46 46 46 46 46 47 47 47 47 47 47
36 36 36 36 36 36 36 36 36 36 36 37 37 38 38 39 40 41 42 43 44 45 45 45 45 45 45 46 47 47 48 48 48 48 49 49 50 50 51 52 52 53 53 54 55 55 56 56 57 57 57 56 56 56 56 56 55 54 54 53 52 51 51 50 49 48 48 48 47 47 47 47 47 47 47 47 47 47 47 47 47 47 47 47 47 47
35 35 34 34 33 33 33 33 33 34 34 35 35 36 36 37 38 39 40 41 42 42 42 42 42 41 41 42 44 44 45 45 46 46 46 47 48 49 49 50 51 52 52 53 54 54 54 54 55 56 55 55 55 56 56 56 55 55 54 53 53 52 52 52 50 49 48 48 48 47 47 47 47 47 47 48 48 48 47 47 47 47 48 48 48 48
34 34 33 33 32 32 32 32 32 33 33 34 34 35 35 35 36 36 38 38 39 40 40 41 41 40 40 41 42 42 43 44 44 45 45 45 46 47 47 48 49 50 51 51 52 53 53 54 54 54 54 54 55 55 55 55 55 54 54 53 53 53 52 52 51 50 49 49 48 48 47 46 46 46 47 48 48 48 48 48 47 47 48 48 48 49
34 34 34 33 33 33 33 32 32 32 33 33 34 34 34 34 34 35 36 37 37 38 39 39 40 41 42 43 42 42 43 44 44 45 44 45 45 45 46 46 47 48 49 49 50 51 51 52 53 53 53 53 54 54 55 54 54 54 54 53 53 53 52 52 51 51 50 49 49 48 47 47 46 47 47 48 48 48 48 49 48 48 48 48 48 48
34 34 34 34 33 33 33 33 32 32 32 33 33 33 33 33 33 34 34 35 36 36 37 38 39 40 42 43 43 43 43 43 44 44 44 44 44 45 45 45 46 46 47 48 48 49 50 51 51 52 52 53 53 54 54 54 53 54 54 54 53 53 53 53 52 51 50 50 49 49 48 47 47 47 47 47 47 48 48 49 49 49 48 48 47 48
34 34 34 34 33 33 33 32 32 32 32 32 32 32 32 32 33 33 33 34 35 35 36 37 38 39 40 41 42 42 42 43 43 43 43 43 43 43 44 44 45 45 46 46 47 48 49 49 50 51 51 52 53 53 54 53 53 54 54 54 54 53 53 52 52 51 50 50 49 49 48 48 48 48 47 47 47 47 48 48 49 49 49 49 48 48
33 33 33 33 33 33 33 32 32 32 32 32 32 32 32 32 32 32 33 33 34 34 35 36 37 37 38 39 40 40 40 41 41 41 41 41 41 42 42 43 44 44 45 45 46 47 47 48 48 50 51 51 52 52 53 53 53 53 53 54 54 53 52 52 51 51 50 50 49 49 49 48 48 48 47 47 47 47 47 48 48 49 49 49 49 48
32 32 32 33 33 33 33 32 32 31 31 31 31 31 31 31 31 31 31 32 32 33 34 35 35 36 37 38 38 39 39 39 39 39 39 39 39 40 41 41 42 42 43 43 44 45 45 45 46 47 49 50 51 51 51 51 51 51 52 52 53 52 52 51 51 50 50 49 49 49 49 48 48 48 47 47 47 47 47 47 47 48 48 48 49 49
Wind_Direction
270 271 272 272 273 272 271 271 270 268 266 265 264 264 264 264 264 263 261 257 252 248 245 243 242 243 244 245 245 245 245 245 244 244 243 243 243 243 243 243 243 242 242 241 241 241 240 240 241 241 242 243 243 244 244 244 244 243 243 244 244 245 245 246 247 247 247 247 247 247 247 246 247 247 247 247 247 247 248 248 248 248 247 247 247 247
269 269 270 271 271 271 271 272 272 271 270 269 268 267 267 267 266 266 265 261 256 251 248 246 245 245 245 245 246 246 246 246 246 246 245 245 245 245 245 244 244 243 243 242 242 242 242 241 241 242 242 243 244 244 245 245 244 244 244 244 244 244 245 246 246 247 247 247 247 247 247 247 247 247 246 247 247 248 249 249 250 249 249 248 247 248
268 267 268 268 269 269 269 270 271 271 271 270 269 269 269 269 269 268 268 266 263 259 254 251 250 249 249 248 248 248 248 248 248 247 247 247 246 247 246 246 245 244 243 243 243 243 242 242 242 242 242 243 243 244 245 245 245 244 244 244 244 245 245 246 246 247 247 247 247 247 247 247 247 247 247 246 246 247 248 249 250 251 250 249 248 248
266 266 265 265 266 266 267 268 269 270 270 270 270 270 269 269 269 268 268 268 267 265 261 258 256 254 253 252 251 250 250 249 249 249 249 248 248 247 247 247 246 245 244 243 243 243 243 243 242 242 242 242 243 244 244 244 244 244 245 245 245 245 246 246 246 247 247 247 247 248 248 248 248 248 247 247 247 247 247 248 249 250 250 250 250 250
268 266 264 264 263 263 264 265 266 267 268 268 268 268 268 268 268 267 268 268 267 266 265 263 261 259 257 256 254 253 252 252 251 251 250 250 249 248 247 247 246 245 244 244 244 244 244 244 243 243 243 243 243 243 244 244 244 245 245 245 246 246 247 247 247 247 247 247 248 248 248 249 249 249 248 248 247 247 247 247 248 249 250 250 250 251
271 269 267 265 263 262 262 262 263 264 264 265 265 265 265 266 266 265 265 265 265 265 265 264 263 262 260 259 257 256 255 253 253 252 252 251 250 249 248 247 246 245 245 245 245 245 245 245 245 244 244 244 243 244 244 244 245 245 246 246 247 247 248 248 248 248 248 248 248 248 248 249 249 249 249 248 248 247 247 248 248 249 249 250 250 250
274 272 271 269 266 264 263 262 262 261 261 261 262 262 262 263 263 262 262 262 263 263 263 263 263 263 262 260 259 258 257 256 255 254 253 252 252 251 249 248 247 246 245 245 245 245 246 246 246 245 245 245 244 244 244 245 245 245 246 247 248 248 249 249 249 249 249 249 248 248 249 249 250 250 250 249 248 248 248 248 248 249 249 249 249 248
275 274 274 272 270 268 266 264 263 261 261 260 260 260 260 260 260 259 259 259 260 260 261 262 262 262 261 261 260 259 258 257 256 255 255 254 254 253 252 251 249 248 246 246 245 245 245 246 246 246 246 246 245 245 245 245 245 246 246 247 247 248 249 249 249 249 250 249 249 249 249 250 250 251 250 250 249 249 249 249 249 248 248 248 248 247
275 275 275 274 273 272 270 268 265 264 262 261 260 259 259 258 258 257 257 257 257 257 258 260 261 261 261 260 260 259 259 258 257 257 256 256 255 255 254 253 252 251 249 248 246 246 245 245 246 246 246 246 246 246 246 246 246 246 246 246 247 247 247 248 248 249 249 250 250 250 250 250 250 250 250 250 250 249 249 249 249 248 247 247 246 245
274 274 275 275 274 274 273 271 269 267 265 264 262 261 259 258 258 257 256 255 255 255 256 257 259 260 260 260 260 259 259 258 258 257 257 257 256 256 256 255 255 254 252 251 249 248 247 246 246 246 247 247 247 248 248 247 247 247 247 246 246 246 246 246 247 247 248 249 250 250 250 250 250 250 250 250 250 250 250 249 248 247 246 245 244 244
274 274 274 274 274 274 274 273 272 270 269 267 265 263 261 260 259 258 257 255 255 255 255 256 257 258 259 259 259 259 258 258 257 257 257 257 256 257 256 256 256 255 255 254 252 251 250 249 248 248 248 248 249 249 249 249 249 248 248 247 247 246 246 246 246 246 247 248 249 250 250 249 249 249 249 249 249 249 249 249 248 246 245 244 243 243
274 274 274 274 274 274 274 274 274 273 271 270 268 266 264 262 261 260 260 258 257 257 256 255 255 256 256 257 258 258 257 257 257 256 256 256 256 256 256 256 256 256 256 255 254 253 252 251 250 250 250 249 250 250 250 250 250 250 249 249 248 248 247 246 246 246 247 247 248 248 248 248 248 248 248 248 248 248 248 248 247 245 244 243 243 243
274 274 274 274 274 274 274 274 275 275 274 272 270 269 267 265 264 263 262 261 260 259 258 256 255 254 254 255 255 256 256 256 256 255 255 255 255 255 255 255 255 256 256 255 255 255 254 253 252 252 251 251 251 251 251 251 250 250 250 250 249 249 248 248 247 247 247 247 247 248 248 247 247 247 247 247 247 247 247 247 247 245 244 243 242 243
274 274 274 274 274 274 274 274 275 275 274 273 272 271 269 268 267 266 264 263 262 261 260 259 257 256 254 254 253 254 254 254 254 254 254 254 254 254 254 255 255 255 255 255 255 255 255 255 254 254 253 253 252 252 251 251 251 251 250 250 250 249 249 248 248 248 247 247 247 247 247 247 247 247 246 246 246 246 246 246 246 246 245 244 243 243
274 274 274 273 273 273 274 274 274 274 273 273 273 273 272 271 270 268 266 265 264 263 263 262 260 258 256 255 254 253 253 253 253 253 253 253 253 253 254 254 254 254 254 254 255 255 255 255 255 255 254 254 254 253 253 252 251 251 250 250 249 249 249 248 248 248 247 247 247 246 246 246 246 246 246 246 245 245 245 245 245 245 245 245 244 244
273 273 273 273 272 273 273 273 273 273 273 273 273 273 273 272 271 269 268 267 266 265 264 263 262 261 259 257 255 254 254 254 253 253 253 253 252 253 253 253 254 254 254 254 254 254 255 255 255 255 255 255 255 254 254 253 253 252 251 250 249 249 248 248 247 247 247 246 246 246 245 245 245 245 246 245 245 244 244 244 245 245 245 245 245 246
272 272 272 272 272 272 272 272 272 272 272 273 273 272 272 271 271 270 269 268 267 266 265 264 263 262 261 260 259 257 256 255 255 254 254 253 253 252 252 253 253 253 253 253 253 254 254 254 255 255 255 255 255 255 255 254 254 253 252 251 251 250 249 249 248 247 247 246 246 245 245 244 244 244 244 244 244 243 243 243 244 244 245 245 246 246
272 271 271 271 271 271 271 271 271 271 271 271 271 271 271 270 270 270 269 269 268 267 266 264 263 262 262 262 261 259 258 258 257 256 255 254 253 253 252 252 252 252 252 252 253 253 254 254 254 254 255 255 255 255 255 255 255 254 253 253 252 251 251 250 250 249 248 248 247 246 245 244 244 244 243 243 243 242 242 242 243 243 244 245 246 246
272 271 271 271 271 270 270 270 270 270 270 270 269 269 269 269 269 269 268 268 267 267 266 266 265 264 263 262 262 261 261 260 259 258 257 256 255 254 253 253 253 252 252 252 252 252 253 253 254 254 254 255 255 255 255 255 255 255 255 254 253 253 252 252 251 251 250 249 249 248 247 246 245 244 244 243 242 242 242 242 243 243 244 245 245 246
271 271 271 270 270 270 270 269 269 268 268 268 268 268 268 268 268 267 267 267 266 266 266 266 265 264 263 263 263 263 262 261 260 259 258 257 256 255 255 254 254 254 253 253 252 252 253 253 253 253 254 254 254 254 254 255 255 255 255 255 255 254 254 253 253 252 252 251 250 249 249 248 247 246 245 244 243 243 242 242 243 243 244 244 245 245
271 270 270 270 270 270 269 269 268 267 267 267 267 267 266 266 266 266 266 265 265 265 265 265 264 264 263 263 263 263 262 262 261 260 259 259 258 257 256 256 255 255 254 254 253 253 253 253 253 253 253 253 253 253 254 254 254 254 255 255 255 255 254 254 254 253 253 252 251 251 250 249 248 247 246 245 244 244 243 243 243 244 244 244 245 245
271 270 270 269 269 268 268 268 268 267 266 266 266 265 265 264 264 264 264 264 264 264 264 263 263 263 263 263 263 262 262 262 261 261 261 260 260 258 257 257 257 256 255 255 254 254 254 254 253 253 253 253 253 253 253 253 253 254 254 254 254 255 255 254 254 254 253 253 252 251 251 250 249 248 247 246 246 245 244 244 244 244 245 245 245 245
272 271 270 269 268 267 267 267 267 266 266 265 264 264 263 263 263 263 263 263 263 263 263 262 263 263 263 263 262 262 262 261 261 261 261 261 260 259 258 258 258 257 256 256 255 255 255 255 254 254 253 253 253 253 253 253 253 253 253 254 254 254 254 254 254 253 253 252 252 251 251 250 250 249 248 247 247 246 246 245 245 245 245 245 246 246
272 271 270 269 268 267 266 266 266 265 265 264 263 263 263 262 262 262 262 262 262 262 262 262 262 262 262 262 261 261 261 261 260 260 260 260 260 259 259 259 259 258 257 256 256 256 256 255 255 255 254 254 253 253 253 253 253 253 253 253 253 253 254 253 253 253 253 252 252 251 251 250 250 249 249 248 248 247 246 246 246 245 245 245 245 245
271 270 269 269 268 267 266 265 265 264 264 263 263 263 262 262 262 262 261 261 262 261 261 261 261 261 261 260 260 260 260 260 259 259 259 259 260 260 259 259 259 258 258 257 257 257 257 256 256 255 255 255 254 254 254 253 253 253 253 253 253 253 253 253 253 253 252 252 251 251 251 250 250 250 249 249 248 248 247 246 246 246 245 245 245 245
270 269 268 267 267 266 265 265 264 263 263 263 262 262 262 262 262 262 262 262 261 261 261 261 260 260 260 260 259 259 259 259 258 258 258 258 259 259 259 258 258 258 258 258 258 257 257 257 256 256 256 255 255 255 254 254 254 253 253 253 253 253 253 253 253 253 253 252 252 251 251 250 250 250 250 250 249 248 248 247 247 246 246 246 246 246
270 269 268 267 266 265 265 264 264 263 263 262 262 262 262 262 262 262 262 261 261 261 261 260 259 259 259 259 259 258 258 258 257 257 256 257 257 258 258 257 257 258 258 258 258 258 257 257 257 256 256 256 256 256 255 255 254 254 253 253 253 253 253 253 253 253 253 253 252 252 251 251 251 251 250 250 250 249 248 248 247 247 247 247 247 247
270 269 268 267 266 265 264 264 263 263 262 262 262 262 262 262 262 261 261 261 261 261 261 260 259 259 259 258 258 258 258 258 257 256 256 256 256 256 256 256 256 257 258 258 258 257 257 257 257 257 257 257 256 256 256 256 255 255 254 254 253 253 253 253 253 253 253 253 253 252 252 252 251 251 251 251 250 249 249 248 248 247 248 248 248 248
271 270 269 268 267 266 265 264 263 262 262 262 262 261 261 261 261 261 260 260 261 261 260 260 259 259 259 258 258 258 258 257 257 256 256 256 255 255 255 255 255 256 256 257 257 257 257 256 256 256 257 257 256 256 256 256 256 256 255 255 254 254 254 253 253 253 253 253 253 253 252 252 252 252 252 251 250 249 248 248 247 247 248 248 248 248
271 271 270 269 268 267 266 265 264 263 262 262 261 261 261 261 261 260 260 261 260 260 259 259 259 259 259 259 259 258 258 257 256 256 256 256 255 255 255 255 255 255 255 256 256 256 256 256 256 256 256 256 256 256 256 257 257 256 256 256 255 255 254 254 254 253 253 253 253 253 253 253 253 253 252 252 251 250 248 247 247 247 247 247 247 247
272 272 271 270 269 268 267 266 265 264 263 262 261 261 260 260 260 261 261 261 260 259 259 259 259 259 259 259 259 258 257 257 256 256 256 255 255 255 255 254 254 254 254 254 254 254 254 254 254 255 255 256 256 256 257 257 257 257 257 256 256 255 255 255 254 254 253 253 253 253 253 253 253 253 253 252 252 250 249 247 246 246 246 246 246 245
273 272 272 271 270 269 269 268 267 266 264 263 262 261 261 260 260 260 261 260 260 259 259 259 258 258 258 258 257 257 257 257 257 257 256 256 256 255 255 255 254 254 253 253 253 253 253 253 253 254 254 255 256 256 257 257 257 257 257 257 256 256 256 255 255 254 254 253 253 253 253 253 253 253 253 253 252 251 249 247 246 246 246 245 245 244
273 272 272 271 271 270 269 269 268 267 266 265 264 262 262 261 261 260 260 260 260 260 259 259 259 258 258 257 257 257 257 258 258 257 257 256 256 256 256 255 254 254 254 253 252 252 252 253 253 254 254 254 255 255 256 256 257 257 257 257 257 256 256 256 255 254 254 254 253 253 253 252 252 252 252 252 252 251 250 248 247 247 246 246 245 244
273 272 272 271 271 270 269 269 268 268 267 266 265 264 263 262 262 261 261 261 260 260 260 259 259 258 258 257 257 257 257 257 257 257 256 256 256 256 256 255 255 254 254 253 253 252 252 252 253 254 254 254 254 254 254 255 255 256 256 256 256 256 256 256 255 255 254 254 253 253 253 252 252 251 251 251 251 251 250 249 248 247 247 246 245 244
273 272 272 271 271 270 270 269 268 268 267 267 266 265 264 263 263 262 262 261 261 260 260 259 259 259 258 258 258 258 257 257 257 256 256 256 256 256 256 255 255 254 254 253 253 252 252 252 252 252 253 253 254 253 253 254 254 255 255 255 256 256 256 255 255 254 254 254 253 253 253 252 252 251 251 251 251 250 249 248 247 247 246 245 245 244
273 272 272 271 271 270 269 269 268 268 267 267 266 266 265 264 264 263 262 262 262 261 260 260 259 259 258 258 258 258 258 257 257 256 256 255 255 255 255 255 255 254 254 254 253 252 252 252 251 251 252 252 253 253 253 253 253 254 254 254 255 255 255 255 254 254 254 254 253 253 252 252 252 251 251 251 250 250 249 247 246 245 245 244 244 243
272 272 271 271 270 270 269 269 268 268 267 267 266 266 265 265 264 263 263 263 262 262 261 260 260 259 259 258 258 258 258 257 257 256 256 256 255 255 255 255 254 254 254 254 254 253 253 252 251 251 251 251 252 252 253 253 253 253 253 254 254 254 254 254 254 254 253 253 253 252 252 252 251 251 251 251 250 250 248 247 246 245 244 243 243 242
272 272 271 271 270 270 269 269 268 268 267 267 266 266 265 264 264 263 263 263 263 262 262 261 261 260 259 258 258 258 257 257 257 256 256 256 255 255 255 255 254 254 253 253 254 254 253 253 252 251 250 250 251 251 252 253 253 253 253 253 253 253 253 254 253 253 253 252 252 252 251 251 251 250 250 250 250 249 248 247 246 245 244 243 243 242
273 273 272 272 271 270 270 269 269 268 268 267 266 266 265 265 264 263 263 263 262 262 262 261 261 260 260 259 258 258 257 257 257 256 256 255 255 254 254 254 254 253 253 252 253 253 253 253 252 251 251 250 251 251 252 252 252 252 253 253 253 253 253 253 253 253 252 252 251 251 251 250 250 250 249 249 249 248 248 247 246 245 244 244 243 242
275 275 274 273 273 272 271 271 270 269 269 268 267 266 266 265 264 264 263 262 262 261 261 261 261 261 260 260 259 258 258 257 256 256 255 254 254 253 253 253 253 253 253 252 252 252 253 253 253 252 251 251 251 251 251 251 251 252 252 253 253 253 252 252 252 252 252 251 251 250 250 250 249 249 248 248 248 247 247 246 246 245 244 243 242 241
276 276 275 274 274 273 273 272 271 271 270 269 268 267 266 265 265 264 263 262 262 261 261 262 262 261 261 260 259 258 258 257 256 256 255 254 253 253 252 252 253 253 253 252 252 251 251 252 253 253 252 251 251 251 250 250 251 251 251 252 252 252 252 252 252 252 251 251 250 250 249 249 249 248 248 247 247 247 246 246 245 244 244 243 242 241
276 276 276 275 275 275 274 273 273 272 271 270 268 267 266 265 265 264 264 263 262 262 262 262 262 262 261 260 259 258 257 257 256 255 254 253 253 252 252 252 252 252 252 252 251 251 251 251 252 252 252 252 251 251 250 250 250 250 251 251 251 252 253 252 252 251 251 251 250 250 249 248 248 248 247 247 247 246 246 245 245 244 243 242 242 241
276 276 276 276 276 276 275 274 273 272 271 270 269 267 266 266 265 264 264 263 262 262 262 263 262 262 261 260 259 258 257 256 255 254 254 253 253 252 252 251 251 251 251 251 251 251 251 251 251 251 251 251 251 251 250 250 250 250 250 250 250 251 252 252 251 251 250 250 250 250 249 248 247 247 247 246 246 246 245 245 244 244 243 242 242 242
276 276 277 277 277 277 276 276 275 273 272 271 269 268 267 267 266 265 264 263 262 262 262 262 262 261 260 259 258 257 256 255 255 254 254 254 253 252 251 251 251 251 251 251 251 251 251 250 250 250 250 250 250 250 250 249 249 249 249 249 249 250 250 251 251 250 250 250 250 250 249 248 247 247 246 246 246 245 245 244 244 243 243 243 242 242
276 276 276 277 277 277 276 276 276 275 275 274 272 271 269 268 267 266 264 263 262 261 261 260 260 259 258 257 256 256 256 255 255 255 255 254 253 252 251 251 250 250 250 250 250 250 250 250 250 249 250 250 249 249 249 248 248 248 248 249 249 249 250 250 250 250 249 249 249 249 249 248 248 247 246 245 245 245 244 244 243 243 243 242 242 242
275 275 275 276 276 276 276 276 276 276 276 276 275 273 272 270 269 267 265 264 262 261 260 259 259 258 256 256 256 256 256 256 256 255 255 254 254 253 252 251 250 250 250 250 250 250 249 249 249 249 249 249 249 248 248 248 247 248 248 248 249 249 249 249 249 248 248 248 248 249 249 248 247 247 246 245 245 244 244 243 243 243 242 242 242 242
274 274 275 275 275 275 275 276 276 276 276 276 275 274 273 272 270 268 266 264 263 261 260 259 258 257 257 256 256 256 257 257 257 256 255 254 253 253 251 251 250 249 249 249 249 249 249 249 248 248 247 247 247 248 248 247 247 247 248 248 248 248 248 248 248 247 247 247 247 247 248 247 247 246 246 246 245 244 244 243 243 242 242 242 242 241
273 273 274 274 274 274 275 275 276 276 276 276 276 275 274 272 270 268 266 265 263 262 260 259 258 257 257 257 257 257 257 257 257 256 256 254 253 252 251 250 250 249 248 248 248 248 248 248 248 247 246 246 246 246 247 247 247 247 247 247 248 247 247 247 247 247 246 246 246 246 246 246 246 246 246 246 245 245 244 243 243 242 242 242 241 241
272 272 272 272 273 273 274 274 275 275 276 276 277 276 275 273 271 269 267 266 264 262 260 259 258 257 257 257 257 257 257 257 257 256 255 254 253 252 251 250 249 248 248 248 248 248 248 248 247 246 246 245 245 245 246 246 246 246 246 246 246 246 246 246 246 246 245 245 245 245 245 245 245 245 245 245 245 245 244 244 243 242 242 242 241 241
271 271 270 271 271 271 272 273 274 274 275 276 277 277 276 275 274 271 269 267 265 262 260 259 258 258 257 257 257 257 256 256 256 255 255 254 253 252 251 250 249 248 247 247 247 247 247 247 247 246 245 244 244 244 245 245 245 245 245 245 245 244 245 245 245 245 244 244 244 244 244 245 245 245 244 244 245 245 245 244 244 243 242 242 241 241
272 271 270 270 270 270 270 271 272 273 274 275 276 277 277 277 276 274 272 269 266 264 261 260 259 258 257 257 256 256 256 255 255 255 254 254 253 252 251 250 248 247 247 246 246 246 246 246 245 245 245 244 243 242 243 243 244 244 243 243 243 243 243 243 244 243 243 243 243 243 243 243 244 243 243 243 244 244 245 244 244 243 243 242 241 241